CDT,Max TemperatureF,Mean TemperatureF,Min TemperatureF,Max Dew PointF,MeanDew PointF,Min DewpointF,Max Humidity, Mean Humidity, Min Humidity, Max Sea Level PressureIn, Mean Sea Level PressureIn, Min Sea Level PressureIn, Max VisibilityMiles, Mean VisibilityMiles, Min VisibilityMiles, Max Wind SpeedMPH, Mean Wind SpeedMPH, Max Gust SpeedMPH,PrecipitationIn, CloudCover, Events, WindDirDegrees
2013-10-1,85,79,73,76,73,71,94,84,74,29.97,29.93,29.87,10,9,1,24,5,30,0.68,4,Rain-Thunderstorm,142
2013-10-2,87,81,74,75,73,71,100,80,59,30.01,29.96,29.90,10,9,4,14,7,30,T,3,,105
2013-10-3,89,82,74,75,72,69,94,75,55,29.97,29.93,29.90,10,10,9,16,7,25,0.01,2,Rain,140
2013-10-4,89,82,75,77,75,72,94,79,63,29.96,29.93,29.90,10,8,0,18,7,21,0.10,5,Rain,117
2013-10-5,91,82,73,79,75,73,94,77,59,29.94,29.90,29.84,10,9,1,18,6,22,0.54,5,Rain,98
2013-10-6,76,67,58,73,57,47,93,66,38,30.05,29.97,29.91,10,10,2,22,12,26,0.00,2,Rain,338
2013-10-7,79,67,55,57,50,43,93,66,39,30.12,30.06,30.02,10,10,10,14,7,18,0.00,0,,355
2013-10-8,80,68,56,59,55,51,100,70,39,30.10,30.05,30.00,10,10,7,13,4,16,0.00,0,,11
2013-10-9,82,69,56,63,58,55,100,74,48,30.09,30.03,30.01,10,7,0,9,2,13,0.00,0,Fog-Rain,83
2013-10-10,85,73,61,67,63,60,93,71,48,30.08,30.03,29.97,10,7,2,14,4,18,0.00,1,,81
2013-10-11,87,76,65,73,69,62,94,78,61,29.99,29.95,29.91,10,10,10,15,6,18,T,2,Rain,150
2013-10-12,88,80,71,76,73,70,94,79,63,30.09,30.02,29.94,10,7,1,20,6,23,1.41,5,Rain-Thunderstorm,117
2013-10-13,79,75,70,72,70,69,100,87,74,30.15,30.11,30.04,10,10,9,13,5,16,T,5,Rain,38
2013-10-14,84,78,71,72,71,69,100,83,65,30.11,30.05,29.99,10,9,2,12,5,14,T,2,Rain,103
2013-10-15,86,78,69,71,69,68,93,77,61,30.01,29.96,29.91,10,9,5,14,6,18,T,2,Rain,163
2013-10-16,83,76,69,73,70,66,100,83,65,29.97,29.93,29.89,10,9,1,14,6,18,T,5,,316
2013-10-17,74,67,60,66,62,56,93,79,64,30.06,30.00,29.96,10,9,5,13,7,18,T,6,,356
2013-10-18,74,66,57,63,58,54,97,75,53,30.04,29.97,29.90,10,10,10,24,8,31,0.83,4,Rain-Thunderstorm,62
2013-10-19,72,62,52,63,58,50,97,75,53,30.09,30.01,29.94,10,7,1,18,9,24,0.35,6,Rain-Thunderstorm,4
2013-10-20,74,62,49,56,52,47,93,70,46,30.10,30.04,29.96,10,10,10,9,3,10,0.00,1,,56
2013-10-21,75,67,59,67,62,56,93,79,64,30.01,29.97,29.92,10,9,6,26,5,31,0.07,6,Rain,59
2013-10-22,72,62,52,64,60,51,93,73,53,30.08,30.02,29.97,10,8,4,18,8,25,0.00,5,,353
2013-10-23,82,65,48,57,51,46,96,63,30,30.15,30.10,30.07,10,10,8,9,3,20,0.00,0,,336
2013-10-24,84,69,54,62,56,51,100,67,34,30.22,30.16,30.12,10,6,1,8,1,10,0.00,0,,310
2013-10-25,75,66,57,59,52,47,97,70,43,30.37,30.29,30.22,10,9,2,20,10,26,0.00,0,,55
2013-10-26,78,66,54,63,57,47,93,74,54,30.27,30.19,30.12,10,8,1,13,7,16,0.00,0,,100
2013-10-27,77,69,60,67,63,59,100,85,69,30.12,30.07,30.01,10,5,0,15,5,18,0.40,4,Fog-Rain,103
2013-10-28,82,71,60,70,64,59,100,84,67,30.14,30.07,30.04,10,6,0,12,6,15,0.00,3,Fog,123
2013-10-29,83,75,67,70,68,66,93,78,62,30.15,30.12,30.08,10,10,6,17,9,22,0.00,3,,127
2013-10-30,81,77,72,73,71,69,94,84,74,30.09,30.00,29.91,10,9,5,30,15,39,0.13,6,Rain,136
2013-10-31,79,70,60,75,68,61,100,93,85,29.89,29.85,29.77,10,4,0,31,9,44,3.26,7,Fog-Rain-Thunderstorm,195